Erzincan, Turkey

11:49 AM +03 on January 21, 2018 (GMT +0300)
Erzincan

Weather History for LTCD - March, 2013

Change the Weather History Date:

Tuesday, March 26, 2013

  Actual Average Record
Temperature  
Mean Temperature 44 °F -  
Max Temperature 55 °F 60 °F - ()
Min Temperature 33 °F 39 °F - ()
Degree Days  
Heating Degree Days 21    
Moisture  
Dew Point 31 °F    
Average Humidity 60    
Maximum Humidity 93    
Minimum Humidity 27    
Precipitation  
Precipitation 0.00 in 0.06 in - ()
Sea Level Pressure  
Sea Level Pressure 29.96 in    
Wind  
Wind Speed 5 mph ()    
Max Wind Speed 24 mph    
Max Gust Speed 30 mph    
Visibility 6.4 miles    
Events      
T = Trace of Precipitation, MM = Missing Value Source: Averaged Metar Reports

Daily Weather History Graph

Daily Weather History Graph

Search for Another Location

Airport or City:

Trip Planner

Search our weather history database for the weather conditions in past years. The results will help you decide how hot, cold, wet, or windy it might be!

Date:

Astronomy

Mar. 26, 2013 Rise Set
Actual Time 5:15 AM EET 5:40 PM EET
Civil Twilight 4:48 AM EET 6:07 PM EET
Nautical Twilight 4:17 AM EET 6:38 PM EET
Astronomical Twilight 3:44 AM EET 7:11 PM EET
Moon 4:53 PM EET (3/26) 4:20 AM EET (3/26)
Length of Visible Light 13h 18m
Length of Day
12h 24m
Waxing Gibbous, 99% of the Moon is Illuminated
Mar 26
Waxing Gibbous
Mar 27
Full
Apr 3
Last Quarter
Apr 10
New
Apr 18
First Quarter

Hourly Weather History & Observations

Time (EET) Temp. Windchill Dew Point Humidity Pressure Visibility Wind Dir Wind Speed Gust Speed Precip Events Conditions
12:50 AM 37.4 °F - 32.0 °F 81% 30.06 in 6.2 mi NNW 1.2 mph - N/A   Mostly Cloudy
1:50 AM 33.8 °F - 32.0 °F 93% 30.06 in 6.2 mi Calm Calm - N/A   Mostly Cloudy
2:00 AM 34 °F - 32 °F 88%  in 6 mi Calm Calm - -   Partly Cloudy
2:50 AM 35.6 °F - 32.0 °F 87% 30.04 in 6.2 mi East 1.2 mph - N/A   Mostly Cloudy
3:50 AM 33.8 °F - 32.0 °F 93% 30.04 in 6.2 mi NNE 1.2 mph - N/A   Mostly Cloudy
4:50 AM 33.8 °F - 32.0 °F 93% 30.04 in 6.2 mi Calm Calm - N/A   Mostly Cloudy
5:50 AM 33.8 °F - 32.0 °F 93% 30.04 in 6.2 mi Variable 1.2 mph - N/A   Mostly Cloudy
6:50 AM 35.6 °F 31.7 °F 33.8 °F 93% 30.04 in 6.2 mi WNW 4.6 mph - N/A   Mostly Cloudy
7:50 AM 41.0 °F 39.0 °F 35.6 °F 81% 30.01 in 6.2 mi North 3.5 mph - N/A   Mostly Cloudy
8:00 AM 41 °F - 35 °F 73%  in 6 mi North 3.5 mph - -   Partly Cloudy
8:50 AM 42.8 °F - 33.8 °F 70% 30.04 in 6.2 mi Calm Calm - N/A   Mostly Cloudy
9:50 AM 48.2 °F - 35.6 °F 62% 30.01 in 6.2 mi Calm Calm - N/A   Mostly Cloudy
10:50 AM 50.0 °F - 32.0 °F 50% 30.01 in 6.2 mi Calm Calm - N/A   Mostly Cloudy
11:50 AM 50.0 °F - 30.2 °F 47% 29.98 in 6.2 mi Variable 2.3 mph - N/A   Mostly Cloudy
12:50 PM 51.8 °F - 32.0 °F 47% 29.95 in 6.2 mi SW 3.5 mph - N/A   Mostly Cloudy
1:50 PM 53.6 °F - 30.2 °F 41% 29.92 in 6.2 mi SSE 12.7 mph - N/A   Mostly Cloudy
2:00 PM 54 °F - 29 °F 27%  in 6 mi SSE 12.7 mph - -   Partly Cloudy
2:50 PM 55.4 °F - 30.2 °F 38% 29.89 in 6.2 mi SE 16.1 mph - N/A   Mostly Cloudy
3:50 PM 53.6 °F - 28.4 °F 38% 29.89 in 6.2 mi ESE 21.9 mph - N/A   Mostly Cloudy
4:50 PM 51.8 °F - 30.2 °F 44% 29.86 in 6.2 mi ESE 24.2 mph - N/A   Mostly Cloudy
5:50 PM 51.8 °F - 30.2 °F 44% 29.89 in 6.2 mi ESE 13.8 mph 29.9 mph N/A   Mostly Cloudy
6:50 PM 50.0 °F - 30.2 °F 47% 29.89 in 6.2 mi ESE 12.7 mph - N/A   Mostly Cloudy
7:50 PM 50.0 °F - 30.2 °F 47% 29.89 in 6.2 mi ESE 19.6 mph - N/A   Mostly Cloudy
8:00 PM 51 °F - 29 °F 30%  in 12 mi ESE 19.6 mph - -   Partly Cloudy
8:50 PM 50.0 °F - 28.4 °F 43% 29.86 in 6.2 mi ESE 23.0 mph - N/A   Mostly Cloudy
9:50 PM 50.0 °F - 28.4 °F 43% 29.86 in 6.2 mi ESE 23.0 mph - N/A   Mostly Cloudy
10:50 PM 50.0 °F - 30.2 °F 47% 29.86 in 6.2 mi ESE 16.1 mph - N/A   Mostly Cloudy
11:50 PM 50.0 °F - 28.4 °F 43% 29.86 in 6.2 mi SE 13.8 mph - N/A   Mostly Cloudy